DUCHIFAT-3 (44854 NORAD) Tracking and Keplerian Element Data

This shows tracking and keplerian element data for the satellite.

Feedback or suggestion? Click here.




ElementValue
Catalog44854
NameDUCHIFAT-3
Epoch Orbit26615
Epoch Day286.70262242
Epoch Year2024
RAAN52.4179
Inclination36.9543
Eccentricity0.0008434
Argument of Perigee16.0885
Mean Anonmoly344.013
Mean Motion15.23337871
Decay Rate0.00046179
L11 44854U 19089C 24286.70262242 .00046179 00000+0 18904-2 0 9999
L22 44854 36.9543 52.4179 0008434 16.0885 344.0130 15.23337871266157



Live tracking and technical data element details for DUCHIFAT-3 (NORAD 44854). DUCHIFAT-3 can be tracked NOW for your location showing map with azimuth and elevation plus other details from your city location.







IsCatalogInMostPopularTable: catalog: 44854, numindb: 299
Update: records affected: 1



GetName: 44854 DUCHIFAT-3

Hit Count: updated at: Thu, 23 Jan 2025 17:15:37 GMT